TimeEDT,TemperatureF,Dew PointF,Humidity,Sea Level PressureIn,VisibilityMPH,Wind Direction,Wind SpeedMPH,Gust SpeedMPH,PrecipitationIn,Events,Conditions,WindDirDegrees,DateUTC
12:53 AM,28.9,23.0,78,30.36,10.0,Calm,Calm,-,N/A,,Clear,0,2013-03-10 05:53:00
1:53 AM,27.0,21.9,81,30.37,10.0,West,4.6,-,N/A,,Clear,280,2013-03-10 06:53:00
3:53 AM,26.1,21.0,81,30.36,10.0,Calm,Calm,-,N/A,,Clear,0,2013-03-10 07:53:00
4:53 AM,25.0,21.0,85,30.36,10.0,Calm,Calm,-,N/A,,Clear,0,2013-03-10 08:53:00
5:53 AM,26.1,21.9,84,30.38,10.0,Calm,Calm,-,N/A,,Clear,0,2013-03-10 09:53:00
6:53 AM,24.1,21.0,88,30.39,10.0,Calm,Calm,-,N/A,,Clear,0,2013-03-10 10:53:00
7:53 AM,25.0,21.0,85,30.40,10.0,Calm,Calm,-,N/A,,Clear,0,2013-03-10 11:53:00
8:53 AM,32.0,25.0,75,30.41,10.0,North,3.5,-,N/A,,Clear,10,2013-03-10 12:53:00
9:53 AM,37.9,25.0,60,30.41,10.0,Calm,Calm,-,N/A,,Clear,0,2013-03-10 13:53:00
10:53 AM,39.9,28.0,63,30.40,10.0,Calm,Calm,-,N/A,,Clear,0,2013-03-10 14:53:00
11:53 AM,43.0,28.0,56,30.37,10.0,SE,5.8,-,N/A,,Clear,130,2013-03-10 15:53:00
12:53 PM,44.1,28.0,53,30.37,10.0,South,4.6,-,N/A,,Clear,170,2013-03-10 16:53:00
1:53 PM,46.9,28.0,48,30.34,10.0,Variable,3.5,-,N/A,,Clear,0,2013-03-10 17:53:00
2:53 PM,48.9,28.9,46,30.32,10.0,Variable,5.8,-,N/A,,Clear,0,2013-03-10 18:53:00
3:53 PM,50.0,28.0,43,30.31,10.0,SSE,9.2,-,N/A,,Clear,160,2013-03-10 19:53:00
4:53 PM,51.1,28.0,41,30.29,10.0,South,9.2,-,N/A,,Clear,180,2013-03-10 20:53:00
5:53 PM,50.0,28.0,43,30.28,10.0,SSE,8.1,-,N/A,,Clear,160,2013-03-10 21:53:00
6:53 PM,48.0,28.0,46,30.29,10.0,South,9.2,-,N/A,,Clear,170,2013-03-10 22:53:00
7:53 PM,46.0,32.0,58,30.30,10.0,South,8.1,-,N/A,,Clear,170,2013-03-10 23:53:00
8:53 PM,43.0,30.9,62,30.30,10.0,South,11.5,-,N/A,,Overcast,170,2013-03-11 00:53:00
9:53 PM,41.0,30.9,67,30.31,10.0,South,8.1,-,N/A,,Clear,180,2013-03-11 01:53:00
10:53 PM,39.9,30.9,70,30.30,10.0,SSE,6.9,-,N/A,,Clear,160,2013-03-11 02:53:00
11:53 PM,37.9,30.9,76,30.31,10.0,South,9.2,-,N/A,,Clear,190,2013-03-11 03:53:00
12:53 AM,37.0,30.9,79,30.30,10.0,South,8.1,-,N/A,,Clear,170,2013-03-11 04:53:00